TimeCET,TemperatureF,Dew PointF,Humidity,Sea Level PressureIn,VisibilityMPH,Wind Direction,Wind SpeedMPH,Gust SpeedMPH,PrecipitationIn,Events,Conditions,WindDirDegrees,DateUTC
5:30 AM,57.2,41.0,55,29.53,6.2,South,25.3,39.1,N/A,Rain,Light Rain,190,2014-02-08 04:30:00
6:00 AM,57.2,41.0,55,29.53,6.2,SSW,25.3,42.6,N/A,Rain,Light Rain,200,2014-02-08 05:00:00
6:30 AM,57.2,41.0,55,29.53,6.2,South,25.3,36.8,N/A,Rain,Light Rain,180,2014-02-08 05:30:00
7:00 AM,56,43,52,29.57,19,South,17.3,,,Rain,Light Rain,180,2014-02-08 06:00:00
7:00 AM,55.4,42.8,63,29.56,6.2,South,17.3,-,N/A,Rain,Light Rain,190,2014-02-08 06:00:00
7:30 AM,53.6,44.6,72,29.56,6.2,SSW,15.0,-,N/A,Rain,Light Rain,200,2014-02-08 06:30:00
8:00 AM,51.8,44.6,76,29.59,6.2,SSW,13.8,26.5,N/A,Rain,Rain,200,2014-02-08 07:00:00
8:30 AM,51.8,44.6,76,29.56,6.2,SSW,12.7,-,N/A,,Scattered Clouds,200,2014-02-08 07:30:00
9:00 AM,53.6,44.6,72,29.53,6.2,SSW,8.1,-,N/A,,Scattered Clouds,210,2014-02-08 08:00:00
9:30 AM,53.6,44.6,72,29.53,6.2,SW,4.6,-,N/A,,Scattered Clouds,230,2014-02-08 08:30:00
10:00 AM,54,44,61,29.55,19,SW,6.9,,,,Partly Cloudy,220,2014-02-08 09:00:00
10:00 AM,53.6,44.6,72,29.53,6.2,SW,5.8,-,N/A,,Mostly Cloudy,220,2014-02-08 09:00:00
10:30 AM,59.0,44.6,59,29.53,6.2,SSW,10.4,-,N/A,,Mostly Cloudy,210,2014-02-08 09:30:00
11:00 AM,59.0,42.8,55,29.56,6.2,SW,10.4,-,N/A,,Mostly Cloudy,220,2014-02-08 10:00:00
11:30 AM,50.0,46.4,87,29.62,6.2,WSW,11.5,25.3,N/A,Rain,Rain,250,2014-02-08 10:30:00
12:00 PM,51.8,46.4,82,29.62,6.2,Variable,9.2,23.0,N/A,Rain,Light Rain,0,2014-02-08 11:00:00
12:30 PM,51.8,44.6,76,29.65,6.2,Variable,10.4,21.9,N/A,Rain,Light Rain,0,2014-02-08 11:30:00
1:00 PM,51,43,66,29.66,9,West,9.2,,,Rain,Rain,260,2014-02-08 12:00:00
1:00 PM,50.0,42.8,76,29.65,6.2,Variable,8.1,23.0,N/A,Rain,Light Rain,0,2014-02-08 12:00:00
1:30 PM,51.8,44.6,76,29.65,6.2,SW,12.7,-,N/A,,Mostly Cloudy,220,2014-02-08 12:30:00
2:00 PM,50.0,41.0,71,29.65,6.2,Variable,11.5,32.2,N/A,Rain,Light Rain,0,2014-02-08 13:00:00
2:30 PM,50.0,42.8,76,29.65,6.2,Variable,11.5,26.5,N/A,,Mostly Cloudy,0,2014-02-08 13:30:00
3:00 PM,48.2,39.2,71,29.65,6.2,Variable,11.5,25.3,N/A,,Mostly Cloudy,0,2014-02-08 14:00:00
3:30 PM,48.2,41.0,76,29.68,6.2,WSW,12.7,28.8,N/A,Rain,Light Rain,240,2014-02-08 14:30:00
4:00 PM,49,43,74,29.70,6,SW,9.2,,,Rain,Rain,230,2014-02-08 15:00:00
4:00 PM,48.2,42.8,82,29.68,6.2,WSW,8.1,-,N/A,Rain,Rain,240,2014-02-08 15:00:00
4:30 PM,46.4,42.8,87,29.71,4.3,Variable,9.2,23.0,N/A,Rain,Rain,0,2014-02-08 15:30:00
5:00 PM,46.4,41.0,81,29.71,6.2,SW,16.1,29.9,N/A,Rain,Light Rain,230,2014-02-08 16:00:00
5:30 PM,46.4,41.0,81,29.71,6.2,SSW,11.5,-,N/A,,Mostly Cloudy,210,2014-02-08 16:30:00
6:00 PM,46.4,41.0,81,29.71,6.2,SW,9.2,-,N/A,Rain,Light Rain,220,2014-02-08 17:00:00
6:30 PM,46.4,41.0,81,29.71,6.2,SSW,10.4,-,N/A,,Scattered Clouds,200,2014-02-08 17:30:00
7:00 PM,46,42,79,29.73,12,SW,9.2,,,,Partly Cloudy,220,2014-02-08 18:00:00
7:00 PM,46.4,41.0,81,29.71,6.2,SW,8.1,-,N/A,,Scattered Clouds,220,2014-02-08 18:00:00
7:30 PM,44.6,41.0,87,29.74,6.2,SSW,8.1,-,N/A,,Scattered Clouds,200,2014-02-08 18:30:00
8:00 PM,46.4,39.2,76,29.74,6.2,SW,6.9,-,N/A,,Scattered Clouds,220,2014-02-08 19:00:00
8:30 PM,46.4,39.2,76,29.74,6.2,SSW,6.9,-,N/A,,Scattered Clouds,210,2014-02-08 19:30:00
9:00 PM,46.4,39.2,76,29.77,6.2,SW,10.4,-,N/A,Rain,Light Rain,220,2014-02-08 20:00:00
9:30 PM,46.4,39.2,76,29.77,6.2,SSW,10.4,-,N/A,,Scattered Clouds,210,2014-02-08 20:30:00